Theta_e
310 310 309 310 310 310 310 311 311 311 311 311 311 311 312 315 317 320 322 319 316 315 315 317 321 324 323 320 321 323 327 328 331 335 336 334 338 335 338 337 337 338 338 334 338
310 310 310 310 310 310 310 311 311 311 311 311 311 311 314 316 320 323 323 322 317 316 318 319 321 321 320 321 322 324 326 327 328 333 335 336 337 337 337 338 338 338 338 334 335
310 310 310 311 311 310 310 311 311 311 311 311 311 312 315 317 321 323 323 320 320 319 319 319 321 321 320 318 319 321 326 324 324 327 332 335 335 334 337 338 338 337 335 333 334
310 310 310 310 310 310 311 311 311 311 310 311 311 313 315 318 321 321 320 316 320 320 319 320 320 320 321 322 318 322 322 322 324 328 331 335 333 333 335 337 335 337 331 335 336
310 309 310 310 310 310 310 311 310 311 310 311 311 314 316 317 321 322 316 315 320 321 320 319 321 321 325 321 320 321 322 322 326 328 332 333 334 334 333 333 333 336 334 337 337
309 309 309 309 310 310 310 310 310 311 310 311 312 314 315 317 321 323 316 315 318 319 319 321 322 322 323 322 323 323 323 328 330 332 332 335 334 333 331 334 335 338 337 336 337
309 310 309 309 309 310 310 310 310 310 310 311 312 314 315 321 323 323 320 317 319 321 321 321 321 322 322 324 322 324 329 330 331 333 333 331 335 332 330 338 338 339 339 338 337
310 310 309 309 309 310 310 310 310 310 311 312 312 314 318 323 323 322 322 322 322 322 321 322 322 322 322 323 325 328 329 332 331 332 331 333 336 332 334 339 339 339 338 337 337
310 310 310 309 310 310 310 310 310 311 312 312 313 315 322 323 323 323 323 322 323 323 323 322 323 323 324 326 329 329 332 332 331 331 334 335 335 334 336 338 339 338 338 337 337
310 310 310 310 310 310 310 310 311 312 312 314 316 318 323 323 322 323 323 324 324 324 324 324 324 327 326 329 330 330 331 333 335 334 335 335 335 334 335 337 338 339 339 338 339
311 310 310 310 310 310 310 311 313 315 316 317 318 319 322 323 323 323 324 324 324 324 327 323 328 328 326 326 326 328 332 335 333 331 331 332 332 332 330 333 337 337 338 337 339
311 310 310 310 310 310 311 312 314 314 315 318 319 320 322 322 323 323 324 324 325 326 324 326 327 326 325 324 328 332 332 334 330 329 331 332 331 331 332 336 336 336 338 339 338
312 310 310 310 310 311 311 314 315 314 314 320 321 322 323 323 323 323 324 324 324 325 324 327 326 322 325 329 331 329 334 333 332 329 329 331 332 332 331 336 338 337 337 338 338
312 311 310 310 310 311 316 318 317 316 323 323 324 323 323 323 323 323 324 324 324 325 324 326 325 325 330 330 330 332 328 328 330 331 332 328 333 332 330 335 338 339 339 339 339
313 312 310 310 311 312 315 319 319 317 325 323 324 323 323 323 323 324 324 324 324 324 327 327 328 329 331 329 327 331 328 331 331 332 333 331 333 332 330 334 338 339 339 339 338
313 313 311 310 311 314 317 320 318 326 325 326 325 322 323 322 322 323 323 323 323 328 329 328 326 329 329 328 327 327 330 330 330 332 334 331 332 333 333 332 335 336 336 335 332
313 313 311 310 311 314 317 320 325 327 324 326 323 322 323 323 323 323 323 324 325 331 331 331 330 330 330 331 329 328 331 332 334 335 335 330 332 333 331 331 333 333 333 331 330
313 313 311 311 315 316 319 324 325 323 324 325 321 321 324 322 322 322 323 324 323 330 331 331 332 332 330 331 332 331 331 331 332 336 334 331 334 333 329 330 330 330 330 330 329
313 313 312 311 315 313 320 324 324 324 325 328 321 323 322 322 323 324 323 324 323 329 334 334 333 330 331 330 330 332 335 329 334 328 333 332 332 330 330 331 329 329 329 328 327
313 312 311 312 313 314 323 320 324 321 326 326 324 323 324 322 324 325 324 324 327 325 329 333 335 332 332 329 329 332 329 333 332 335 333 332 332 333 333 333 329 329 328 327 327
314 316 313 313 317 323 325 324 325 325 326 327 327 324 323 324 323 324 325 327 329 329 329 331 335 333 331 333 334 332 333 330 330 330 333 333 333 329 333 331 330 329 328 328 327
317 319 313 318 323 320 326 325 323 324 323 325 326 329 330 326 324 327 328 329 330 331 334 331 337 336 333 330 331 331 331 330 332 334 331 333 334 329 330 329 329 329 327 328 325
314 320 314 320 325 324 322 322 322 324 325 326 329 329 329 330 333 330 333 329 330 331 336 334 335 337 335 330 331 333 331 329 330 332 335 333 333 329 328 329 328 329 325 324 324
318 323 317 320 318 323 324 323 324 322 324 324 327 327 331 333 331 333 331 332 330 328 326 330 333 335 329 328 331 334 332 330 333 335 335 335 333 333 331 330 329 328 324 323 323
324 325 319 321 321 320 321 321 322 325 322 322 329 332 332 335 334 334 332 332 331 331 329 334 336 332 331 331 332 332 332 332 333 332 334 332 333 333 331 330 329 327 324 323 323
319 322 325 326 325 320 319 322 323 324 323 324 332 332 332 335 333 334 332 331 333 333 333 333 338 333 334 331 331 332 331 331 331 331 332 331 333 330 329 328 328 327 325 325 323
319 322 324 323 323 321 323 323 326 326 326 326 327 333 336 334 332 329 326 328 332 337 336 335 335 334 336 331 331 331 333 332 332 331 332 333 331 329 329 329 328 327 326 325 322
Wind_Speed
9 9 9 8 11 8 9 10 11 12 14 16 17 15 15 14 13 6 6 5 3 10 6 7 8 8 6 3 1 4 1 3 4 3 2 4 6 3 3 3 4 4 1 3 17
10 11 11 9 13 9 9 12 12 12 14 15 17 15 14 16 5 6 6 6 3 8 8 9 9 6 3 2 2 2 2 5 3 6 3 8 8 7 4 6 7 2 2 12 16
10 11 11 12 13 11 10 12 12 13 13 15 17 14 14 14 1 3 5 1 4 7 9 10 8 7 3 2 3 3 4 3 3 7 5 8 10 8 9 6 8 9 9 17 16
10 11 12 12 13 12 11 12 12 13 13 14 16 13 14 7 2 3 3 4 9 11 13 11 8 3 1 2 3 4 9 8 4 3 7 6 8 6 12 5 8 5 11 16 16
11 11 13 12 13 13 11 12 12 13 12 12 14 13 13 6 1 5 3 9 15 12 11 9 5 2 2 2 3 4 5 3 5 4 4 5 4 4 5 8 6 7 15 15 14
12 12 13 11 12 12 11 12 11 12 11 11 13 12 14 3 1 6 6 8 13 13 10 6 2 3 3 4 3 3 2 9 7 10 6 3 2 3 13 9 6 15 17 15 12
12 11 13 11 11 11 11 11 10 11 10 11 13 13 8 0 2 5 7 10 11 10 6 3 2 3 3 4 2 2 1 7 17 4 5 4 2 10 18 7 15 15 15 13 9
14 12 12 10 10 10 11 9 9 9 9 10 12 13 5 2 5 4 5 6 6 3 1 1 3 4 1 3 4 3 3 4 12 7 4 3 7 21 17 14 16 12 11 11 7
14 12 11 9 8 8 8 8 8 8 9 9 10 6 1 2 5 3 3 5 6 5 3 0 1 2 2 3 3 8 8 7 4 13 2 5 6 18 14 20 16 10 8 7 5
14 12 10 7 6 6 6 7 7 9 8 7 8 2 2 4 6 2 2 4 3 7 6 2 2 2 4 3 4 5 6 6 5 7 17 17 14 17 19 19 12 7 5 6 3
13 10 8 6 4 3 4 4 5 3 5 4 3 6 3 7 4 5 6 8 6 6 2 3 3 7 5 1 8 10 12 14 9 3 13 14 17 16 15 17 6 7 7 1 2
11 9 6 5 4 3 0 2 3 0 6 6 10 12 7 2 2 5 7 4 4 5 2 3 4 1 4 8 12 14 15 8 10 15 15 16 16 12 19 14 13 8 8 8 9
11 8 5 4 3 3 4 2 4 6 2 3 5 6 1 4 2 2 4 6 5 5 6 3 4 4 4 5 9 6 7 9 16 9 8 9 14 13 12 17 17 16 11 10 10
11 7 4 4 3 6 7 3 4 1 0 0 3 3 5 4 2 3 4 3 3 3 2 3 6 6 9 6 4 2 3 8 15 10 4 6 5 8 11 13 17 16 15 12 11
10 6 5 6 4 8 4 4 1 4 4 1 2 2 5 3 5 3 4 3 5 2 2 3 6 6 8 3 2 2 4 13 8 9 5 7 4 4 5 9 12 16 15 13 11
8 5 6 8 6 7 1 2 4 0 2 2 2 4 4 0 1 5 3 5 7 5 9 3 1 4 3 4 2 8 8 8 4 1 2 4 2 3 2 3 5 10 14 14 12
7 5 6 8 6 6 1 6 0 1 2 4 3 3 3 2 2 2 2 3 3 4 4 4 4 2 5 2 6 2 2 3 4 1 1 3 2 3 2 3 5 7 9 8 9
5 5 5 10 8 6 6 2 1 1 4 2 3 5 3 2 3 2 3 3 3 6 3 3 4 6 6 4 2 4 1 1 3 2 2 0 2 4 2 2 5 6 7 7 8
5 5 6 10 11 5 5 2 2 4 2 4 3 4 2 1 3 3 1 6 1 3 4 4 3 1 5 6 2 2 2 2 5 1 3 1 1 3 3 5 6 7 8 9 8
5 3 5 12 9 7 2 3 3 4 3 1 4 1 5 3 3 2 3 2 3 0 1 5 4 1 2 2 11 3 6 1 2 2 2 1 3 3 8 9 4 4 4 4 3
3 2 7 13 10 5 3 4 4 7 7 5 4 4 2 3 2 2 4 2 2 3 4 4 2 2 2 5 3 1 2 4 3 2 1 1 0 1 10 8 4 3 0 3 1
3 1 11 15 3 1 3 4 2 4 2 3 3 3 4 3 3 3 4 2 2 5 5 2 3 3 3 1 1 1 2 1 2 1 2 2 1 1 6 7 5 3 3 4 2
2 2 13 3 3 1 1 2 3 3 3 2 1 2 2 4 4 3 2 1 4 2 6 7 2 3 3 3 2 0 2 3 4 1 2 3 2 3 6 6 5 5 6 3 2
3 2 3 1 2 3 2 2 3 4 3 1 3 3 4 3 2 5 3 3 3 4 10 5 3 2 1 1 1 3 2 2 1 2 2 3 2 8 9 8 9 8 7 3 3
1 2 4 4 2 3 2 1 2 3 3 4 3 3 3 4 3 3 2 5 5 3 4 3 4 3 3 1 1 3 0 3 3 1 3 3 3 1 10 11 8 9 6 1 3
1 2 4 3 4 1 2 2 0 3 2 2 4 3 1 4 4 8 6 2 3 3 3 1 4 3 3 1 1 3 3 3 1 2 3 1 3 3 8 12 8 7 5 1 4
4 3 2 1 2 2 2 1 1 3 1 1 3 4 6 2 2 10 8 8 7 4 3 3 5 2 3 2 1 1 2 2 1 2 1 1 3 8 9 11 9 7 5 1 4
Wind_Direction
289 291 291 296 290 299 308 308 315 326 326 327 321 321 325 325 324 339 60 52 164 184 181 174 194 228 251 251 210 151 189 242 259 190 257 159 169 137 189 143 180 196 286 143 166
289 286 288 290 288 295 303 305 313 323 325 327 319 324 331 334 346 91 53 45 123 155 144 164 182 204 208 159 155 202 242 241 226 165 213 185 181 169 181 201 211 192 242 156 169
293 289 288 285 286 292 298 302 312 318 325 328 318 326 335 339 49 74 14 83 161 155 148 174 180 199 169 173 187 165 248 301 313 226 223 204 180 178 214 227 233 207 159 162 172
296 290 287 284 284 289 294 298 309 315 323 327 318 328 341 355 84 3 339 143 144 159 170 175 176 158 217 213 183 254 256 258 316 152 187 194 157 188 212 235 21 181 176 166 174
299 296 289 285 284 287 291 293 304 312 317 327 319 329 349 331 39 16 94 140 159 165 172 165 139 153 220 210 185 228 293 31 332 178 195 156 207 206 324 276 263 174 168 166 175
304 302 291 289 286 285 289 289 300 307 316 324 316 326 336 294 6 38 83 131 155 153 164 147 94 333 204 206 217 260 273 45 33 108 114 203 186 132 12 18 128 144 154 167 181
311 305 296 293 286 283 285 285 297 303 314 316 312 325 315 343 351 27 91 114 132 140 144 98 20 325 285 172 304 310 22 74 37 70 70 321 218 42 2 99 110 131 142 149 152
319 313 301 292 283 280 276 288 293 300 305 307 308 319 268 334 358 61 127 145 147 151 141 13 347 308 310 342 55 60 60 78 28 3 32 259 42 15 18 97 94 105 115 144 152
320 311 300 292 283 280 284 284 284 297 295 299 306 325 261 9 68 53 131 130 103 90 72 230 357 26 13 78 107 34 76 70 57 16 25 47 36 14 70 82 84 101 134 150 163
317 311 300 296 284 275 280 276 296 288 279 285 289 318 101 307 360 126 133 134 118 106 88 90 74 71 38 28 78 93 100 59 84 49 76 74 68 58 69 91 113 119 169 201 165
320 311 304 289 275 272 273 316 291 275 245 225 263 285 326 332 111 111 125 121 122 92 83 36 77 36 14 104 113 105 120 123 113 73 63 68 56 33 30 63 65 29 76 225 15
324 312 303 289 275 260 165 91 58 294 321 251 260 274 300 317 109 116 140 148 89 72 45 79 58 34 70 145 116 111 124 118 90 97 93 86 67 56 36 27 34 41 53 58 45
329 313 293 270 238 206 157 92 335 302 265 280 253 270 187 132 109 123 147 109 78 56 41 53 0 206 181 141 102 85 140 166 142 124 107 88 60 45 44 44 50 47 46 43 47
334 311 275 226 191 173 154 6 322 270 59 267 252 208 179 155 79 149 140 115 61 75 148 54 9 121 107 83 28 68 315 177 147 168 124 345 113 46 18 48 47 51 46 46 39
329 302 247 197 166 165 153 334 322 136 145 163 175 175 164 164 142 165 158 79 96 88 208 50 53 75 76 34 4 25 109 141 120 95 157 38 116 102 25 40 32 32 31 37 36
323 292 233 196 165 158 340 344 144 246 223 128 181 180 133 63 90 139 135 91 118 77 58 78 104 48 35 49 32 140 96 75 68 94 107 11 291 132 20 327 32 43 40 37 42
318 277 228 194 174 176 53 146 194 192 338 148 153 169 144 135 96 96 80 60 127 110 75 70 33 45 31 121 91 49 163 170 203 144 51 331 231 83 339 15 12 31 47 40 46
311 271 216 188 166 173 144 82 111 327 257 320 152 112 160 148 52 93 102 123 91 93 101 120 146 9 354 36 26 56 326 11 295 201 166 84 202 107 347 83 81 67 61 65 61
302 262 209 188 184 195 166 107 246 211 291 336 131 132 104 163 128 111 65 176 138 158 130 141 121 48 49 54 319 111 61 70 107 42 225 43 161 202 191 155 106 73 61 59 58
292 245 178 173 190 187 126 210 242 227 293 268 162 146 159 155 126 123 199 134 124 161 292 168 125 12 48 163 59 33 127 219 104 171 246 178 268 231 187 189 124 106 70 79 63
268 233 165 156 157 196 185 215 271 268 240 194 189 121 143 137 94 114 168 88 86 104 107 135 94 159 245 30 10 92 118 68 94 343 283 280 228 201 193 167 151 147 336 168 62
252 191 160 154 129 20 156 194 308 290 334 254 218 109 140 122 112 157 166 97 53 174 111 63 106 108 74 40 9 22 81 74 315 160 54 335 62 165 194 155 149 131 125 159 64
229 108 166 178 164 154 230 259 251 312 304 327 117 52 74 128 121 159 125 50 120 120 150 173 44 120 151 159 137 9 72 98 106 168 165 306 26 142 156 165 188 169 163 151 60
221 122 145 186 112 152 145 269 300 290 259 339 114 112 107 112 31 147 139 57 114 106 110 117 93 127 216 79 92 148 140 141 78 272 137 241 291 191 190 179 166 167 169 151 18
231 136 148 161 134 117 108 318 333 328 320 17 73 67 140 117 99 124 132 125 65 109 64 75 101 106 55 265 129 95 169 204 237 316 259 3 235 345 186 171 161 165 172 162 4
127 154 105 91 110 190 45 215 230 313 286 9 108 83 155 142 191 178 143 159 146 77 79 29 132 138 81 17 200 126 70 93 219 166 261 291 247 28 138 147 155 170 173 245 354
49 115 119 8 95 193 211 213 110 3 257 360 143 103 60 44 109 107 111 99 117 131 115 75 133 129 129 2 84 224 19 352 159 252 273 301 18 153 154 167 161 164 183 270 350